Time,TemperatureF,DewpointF,PressureIn,WindDirection,WindDirectionDegrees,WindSpeedMPH,WindSpeedGustMPH,Humidity,HourlyPrecipIn,Conditions,Clouds,dailyrainin,SoftwareType,DateUTC
2013-06-25 00:02:00,59.0,55.0,29.70,SSE,152,0.0,0.0,87,0.00,,,0.18,,2013-06-25 07:02:00,
2013-06-25 00:11:00,59.0,55.0,29.70,SSE,152,0.0,0.0,87,0.00,,,0.18,,2013-06-25 07:11:00,
2013-06-25 00:22:00,59.0,55.0,29.70,SSE,152,0.0,0.0,87,0.00,,,0.18,,2013-06-25 07:22:00,
2013-06-25 00:33:00,59.0,55.0,29.70,SSE,152,0.0,0.0,87,0.00,,,0.18,,2013-06-25 07:33:00,
2013-06-25 00:43:00,58.0,54.0,29.69,East,99,0.0,1.0,88,0.00,,,0.15,,2013-06-25 07:43:00,
2013-06-25 00:52:00,58.0,54.0,29.69,East,99,0.0,1.0,88,0.00,,,0.15,,2013-06-25 07:52:00,
2013-06-25 01:01:00,58.0,55.0,29.69,ESE,108,1.0,3.0,90,0.00,,,0.15,,2013-06-25 08:01:00,
2013-06-25 01:11:00,58.0,55.0,29.69,ESE,108,1.0,3.0,90,0.00,,,0.15,,2013-06-25 08:11:00,
2013-06-25 01:21:00,58.0,55.0,29.69,ESE,108,1.0,3.0,90,0.00,,,0.15,,2013-06-25 08:21:00,
2013-06-25 01:33:00,58.0,55.0,29.69,ESE,108,1.0,3.0,90,0.00,,,0.15,,2013-06-25 08:33:00,
2013-06-25 01:43:00,58.0,55.0,29.69,East,89,0.0,2.0,90,0.00,,,0.15,,2013-06-25 08:43:00,
2013-06-25 01:53:00,58.0,55.0,29.69,East,89,0.0,2.0,90,0.00,,,0.15,,2013-06-25 08:53:00,
2013-06-25 02:01:00,58.0,55.0,29.68,East,94,0.0,1.0,90,0.00,,,0.15,,2013-06-25 09:01:00,
2013-06-25 02:12:00,58.0,55.0,29.68,East,94,0.0,1.0,90,0.00,,,0.15,,2013-06-25 09:12:00,
2013-06-25 02:21:00,58.0,55.0,29.68,East,94,0.0,1.0,90,0.00,,,0.15,,2013-06-25 09:21:00,
2013-06-25 02:33:00,58.0,55.0,29.68,East,94,0.0,1.0,90,0.00,,,0.15,,2013-06-25 09:33:00,
2013-06-25 02:43:00,57.0,55.0,29.68,ESE,108,0.0,1.0,92,0.00,,,0.14,,2013-06-25 09:43:00,
2013-06-25 02:53:00,57.0,55.0,29.68,ESE,108,0.0,1.0,92,0.00,,,0.14,,2013-06-25 09:53:00,
2013-06-25 03:01:00,57.0,54.0,29.68,SE,134,0.0,0.0,91,0.00,,,0.14,,2013-06-25 10:01:00,
2013-06-25 03:11:00,57.0,54.0,29.68,SE,134,0.0,0.0,91,0.00,,,0.14,,2013-06-25 10:11:00,
2013-06-25 03:21:00,57.0,54.0,29.68,SE,134,0.0,0.0,91,0.00,,,0.14,,2013-06-25 10:21:00,
2013-06-25 03:33:00,57.0,55.0,29.69,SE,134,0.0,0.0,92,0.00,,,0.14,,2013-06-25 10:33:00,
2013-06-25 03:42:00,57.0,55.0,29.69,SE,134,0.0,0.0,92,0.00,,,0.14,,2013-06-25 10:42:00,
2013-06-25 03:52:00,57.0,55.0,29.69,SE,134,0.0,0.0,92,0.00,,,0.14,,2013-06-25 10:52:00,
2013-06-25 04:01:00,57.0,55.0,29.70,ESE,108,0.0,2.0,93,0.01,,,0.15,,2013-06-25 11:01:00,
2013-06-25 04:11:00,57.0,55.0,29.70,ESE,108,0.0,2.0,93,0.01,,,0.15,,2013-06-25 11:11:00,
2013-06-25 04:22:00,57.0,55.0,29.70,ESE,108,0.0,2.0,93,0.01,,,0.15,,2013-06-25 11:22:00,
2013-06-25 04:34:00,57.0,55.0,29.70,ENE,68,0.0,1.0,94,0.06,,,0.20,,2013-06-25 11:34:00,
2013-06-25 04:43:00,57.0,55.0,29.70,ENE,68,0.0,1.0,94,0.06,,,0.20,,2013-06-25 11:43:00,
2013-06-25 04:52:00,57.0,55.0,29.70,ENE,68,0.0,1.0,94,0.06,,,0.20,,2013-06-25 11:52:00,
2013-06-25 05:01:00,57.0,56.0,29.70,ENE,72,0.0,1.0,95,0.05,,,0.20,,2013-06-25 12:01:00,
2013-06-25 05:11:00,57.0,56.0,29.70,ENE,72,0.0,1.0,95,0.05,,,0.20,,2013-06-25 12:11:00,
2013-06-25 05:22:00,57.0,56.0,29.70,ENE,72,0.0,1.0,95,0.05,,,0.20,,2013-06-25 12:22:00,
2013-06-25 05:33:00,57.0,56.0,29.70,ENE,72,0.0,1.0,95,0.05,,,0.20,,2013-06-25 12:33:00,
2013-06-25 05:43:00,57.0,56.0,29.69,ESE,121,1.0,1.0,95,0.00,,,0.20,,2013-06-25 12:43:00,
2013-06-25 05:55:00,57.0,56.0,29.69,ESE,121,1.0,1.0,95,0.00,,,0.20,,2013-06-25 12:55:00,
2013-06-25 06:01:00,57.0,56.0,29.69,ESE,121,1.0,1.0,95,0.00,,,0.20,,2013-06-25 13:01:00,
2013-06-25 06:22:00,56.0,55.0,29.69,East,81,1.0,1.0,95,0.00,,,0.20,,2013-06-25 13:22:00,
2013-06-25 06:34:00,56.0,55.0,29.69,East,81,1.0,1.0,95,0.00,,,0.20,,2013-06-25 13:34:00,
2013-06-25 06:42:00,56.0,55.0,29.68,ENE,62,0.0,1.0,95,0.00,,,0.20,,2013-06-25 13:42:00,
2013-06-25 06:53:00,56.0,55.0,29.68,ENE,62,0.0,1.0,95,0.00,,,0.20,,2013-06-25 13:53:00,
2013-06-25 07:01:00,56.0,55.0,29.68,ENE,62,0.0,1.0,95,0.00,,,0.20,,2013-06-25 14:01:00,
2013-06-25 07:11:00,57.0,56.0,29.69,ENE,68,1.0,1.0,95,0.00,,,0.20,,2013-06-25 14:11:00,
2013-06-25 07:22:00,57.0,56.0,29.69,ENE,68,1.0,1.0,95,0.00,,,0.20,,2013-06-25 14:22:00,
2013-06-25 07:34:00,57.0,56.0,29.69,ENE,68,1.0,1.0,95,0.00,,,0.20,,2013-06-25 14:34:00,
2013-06-25 07:42:00,57.0,55.0,29.71,WSW,249,1.0,1.0,94,0.01,,,0.12,,2013-06-25 14:42:00,
2013-06-25 07:53:00,57.0,55.0,29.71,WSW,249,1.0,1.0,94,0.01,,,0.12,,2013-06-25 14:53:00,
2013-06-25 08:01:00,58.0,57.0,29.71,ESE,103,1.0,2.0,95,0.05,,,0.16,,2013-06-25 15:01:00,
2013-06-25 08:11:00,58.0,57.0,29.71,ESE,103,1.0,2.0,95,0.05,,,0.16,,2013-06-25 15:11:00,
2013-06-25 08:22:00,58.0,57.0,29.71,ESE,103,1.0,2.0,95,0.05,,,0.16,,2013-06-25 15:22:00,
2013-06-25 08:32:00,58.0,57.0,29.71,ESE,103,1.0,2.0,95,0.05,,,0.16,,2013-06-25 15:32:00,
2013-06-25 08:43:00,58.0,56.0,29.71,East,91,1.0,2.0,94,0.04,,,0.14,,2013-06-25 15:43:00,
2013-06-25 08:53:00,58.0,56.0,29.71,East,91,1.0,2.0,94,0.04,,,0.14,,2013-06-25 15:53:00,
2013-06-25 09:03:00,59.0,57.0,29.72,ENE,72,0.0,3.0,94,0.00,,,0.14,,2013-06-25 16:03:00,
2013-06-25 09:12:00,59.0,57.0,29.72,ENE,72,0.0,3.0,94,0.00,,,0.14,,2013-06-25 16:12:00,
2013-06-25 09:23:00,59.0,57.0,29.72,ENE,72,0.0,3.0,94,0.00,,,0.14,,2013-06-25 16:23:00,
2013-06-25 09:34:00,60.0,58.0,29.73,ESE,118,0.0,1.0,92,0.00,,,0.11,,2013-06-25 16:34:00,
2013-06-25 09:43:00,60.0,58.0,29.73,ESE,118,0.0,1.0,92,0.00,,,0.11,,2013-06-25 16:43:00,
2013-06-25 09:52:00,60.0,58.0,29.73,ESE,118,0.0,1.0,92,0.00,,,0.11,,2013-06-25 16:52:00,
2013-06-25 10:01:00,63.0,59.0,29.73,WNW,288,1.0,2.0,87,0.00,,,0.11,,2013-06-25 17:01:00,
2013-06-25 10:11:00,63.0,59.0,29.73,WNW,288,1.0,2.0,87,0.00,,,0.11,,2013-06-25 17:11:00,
2013-06-25 10:22:00,63.0,59.0,29.73,WNW,288,1.0,2.0,87,0.00,,,0.11,,2013-06-25 17:22:00,
2013-06-25 10:33:00,63.0,59.0,29.73,WNW,288,1.0,2.0,87,0.00,,,0.11,,2013-06-25 17:33:00,
2013-06-25 10:43:00,64.0,59.0,29.73,WSW,257,1.0,5.0,84,0.00,,,0.11,,2013-06-25 17:43:00,
2013-06-25 10:53:00,64.0,59.0,29.73,WSW,257,1.0,5.0,84,0.00,,,0.11,,2013-06-25 17:53:00,
2013-06-25 11:02:00,66.0,59.0,29.73,East,82,2.0,5.0,78,0.00,,,0.11,,2013-06-25 18:02:00,
2013-06-25 11:12:00,66.0,59.0,29.73,East,82,2.0,5.0,78,0.00,,,0.11,,2013-06-25 18:12:00,
2013-06-25 11:22:00,66.0,59.0,29.73,East,82,2.0,5.0,78,0.00,,,0.11,,2013-06-25 18:22:00,
2013-06-25 11:34:00,66.0,59.0,29.73,NW,323,2.0,7.0,79,0.00,,,0.11,,2013-06-25 18:34:00,
2013-06-25 11:44:00,66.0,59.0,29.73,NW,323,2.0,7.0,79,0.00,,,0.11,,2013-06-25 18:44:00,
2013-06-25 11:53:00,66.0,59.0,29.73,NW,323,2.0,7.0,79,0.00,,,0.11,,2013-06-25 18:53:00,
2013-06-25 12:01:00,67.0,57.0,29.73,ESE,113,2.0,5.0,71,0.00,,,0.11,,2013-06-25 19:01:00,
2013-06-25 12:11:00,67.0,57.0,29.73,ESE,113,2.0,5.0,71,0.00,,,0.11,,2013-06-25 19:11:00,
2013-06-25 12:22:00,67.0,57.0,29.73,ESE,113,2.0,5.0,71,0.00,,,0.11,,2013-06-25 19:22:00,
2013-06-25 12:33:00,67.0,57.0,29.73,ESE,113,2.0,5.0,71,0.00,,,0.11,,2013-06-25 19:33:00,
2013-06-25 12:44:00,69.0,58.0,29.73,ESE,116,3.0,7.0,68,0.00,,,0.11,,2013-06-25 19:44:00,
2013-06-25 12:54:00,69.0,58.0,29.73,ESE,116,3.0,7.0,68,0.00,,,0.11,,2013-06-25 19:54:00,
2013-06-25 13:01:00,69.0,58.0,29.73,ESE,116,3.0,7.0,68,0.00,,,0.11,,2013-06-25 20:01:00,
2013-06-25 13:11:00,71.0,59.0,29.73,ENE,70,4.0,8.0,66,0.00,,,0.11,,2013-06-25 20:11:00,
2013-06-25 13:22:00,71.0,59.0,29.73,ENE,70,4.0,8.0,66,0.00,,,0.11,,2013-06-25 20:22:00,
2013-06-25 13:42:00,72.0,58.0,29.73,West,260,2.0,8.0,62,0.00,,,0.11,,2013-06-25 20:42:00,
2013-06-25 13:52:00,72.0,58.0,29.73,West,260,2.0,8.0,62,0.00,,,0.11,,2013-06-25 20:52:00,
2013-06-25 14:01:00,71.0,58.0,29.73,ENE,75,3.0,6.0,63,0.00,,,0.11,,2013-06-25 21:01:00,
2013-06-25 14:11:00,71.0,58.0,29.73,ENE,75,3.0,6.0,63,0.00,,,0.11,,2013-06-25 21:11:00,
2013-06-25 14:22:00,71.0,58.0,29.73,ENE,75,3.0,6.0,63,0.00,,,0.11,,2013-06-25 21:22:00,
2013-06-25 14:33:00,71.0,58.0,29.73,ENE,75,3.0,6.0,63,0.00,,,0.11,,2013-06-25 21:33:00,
2013-06-25 14:43:00,70.0,57.0,29.74,South,184,3.0,7.0,64,0.00,,,0.11,,2013-06-25 21:43:00,
2013-06-25 14:53:00,70.0,57.0,29.74,South,184,3.0,7.0,64,0.00,,,0.11,,2013-06-25 21:53:00,
2013-06-25 15:01:00,70.0,56.0,29.74,ESE,105,3.0,4.0,62,0.00,,,0.11,,2013-06-25 22:01:00,
2013-06-25 15:11:00,70.0,56.0,29.74,ESE,105,3.0,4.0,62,0.00,,,0.11,,2013-06-25 22:11:00,
2013-06-25 15:22:00,70.0,56.0,29.74,ESE,105,3.0,4.0,62,0.00,,,0.11,,2013-06-25 22:22:00,
2013-06-25 15:33:00,72.0,56.0,29.73,ENE,63,1.0,5.0,58,0.00,,,0.11,,2013-06-25 22:33:00,
2013-06-25 15:42:00,72.0,56.0,29.73,ENE,63,1.0,5.0,58,0.00,,,0.11,,2013-06-25 22:42:00,
2013-06-25 15:52:00,72.0,56.0,29.73,ENE,63,1.0,5.0,58,0.00,,,0.11,,2013-06-25 22:52:00,
2013-06-25 16:01:00,74.0,55.0,29.72,SW,235,3.0,7.0,52,0.00,,,0.11,,2013-06-25 23:01:00,
2013-06-25 16:11:00,74.0,55.0,29.72,SW,235,3.0,7.0,52,0.00,,,0.11,,2013-06-25 23:11:00,
2013-06-25 16:22:00,74.0,55.0,29.72,SW,235,3.0,7.0,52,0.00,,,0.11,,2013-06-25 23:22:00,
2013-06-25 16:34:00,75.0,55.0,29.71,NNW,342,2.0,4.0,50,0.00,,,0.11,,2013-06-25 23:34:00,
2013-06-25 16:43:00,75.0,55.0,29.71,NNW,342,2.0,4.0,50,0.00,,,0.11,,2013-06-25 23:43:00,
2013-06-25 16:52:00,75.0,55.0,29.71,NNW,342,2.0,4.0,50,0.00,,,0.11,,2013-06-25 23:52:00,
2013-06-25 18:33:00,61.0,58.0,29.76,West,276,3.0,6.0,90,0.08,,,0.19,,2013-06-26 01:33:00,
2013-06-25 18:43:00,61.0,58.0,29.76,West,276,3.0,6.0,90,0.08,,,0.19,,2013-06-26 01:43:00,
2013-06-25 18:53:00,61.0,58.0,29.76,West,276,3.0,6.0,90,0.08,,,0.19,,2013-06-26 01:53:00,
2013-06-25 19:01:00,61.0,57.0,29.77,East,96,2.0,5.0,88,0.04,,,0.19,,2013-06-26 02:01:00,
2013-06-25 19:11:00,61.0,57.0,29.77,East,96,2.0,5.0,88,0.04,,,0.19,,2013-06-26 02:11:00,
2013-06-25 19:22:00,61.0,57.0,29.77,East,96,2.0,5.0,88,0.04,,,0.19,,2013-06-26 02:22:00,
2013-06-25 19:34:00,61.0,58.0,29.79,ENE,74,0.0,3.0,91,0.01,,,0.20,,2013-06-26 02:34:00,
2013-06-25 19:43:00,61.0,58.0,29.79,ENE,74,0.0,3.0,91,0.01,,,0.20,,2013-06-26 02:43:00,
2013-06-25 19:53:00,61.0,58.0,29.79,ENE,74,0.0,3.0,91,0.01,,,0.20,,2013-06-26 02:53:00,
2013-06-25 20:01:00,61.0,58.0,29.79,ESE,112,0.0,1.0,91,0.01,,,0.20,,2013-06-26 03:01:00,
2013-06-25 20:11:00,61.0,58.0,29.79,ESE,112,0.0,1.0,91,0.01,,,0.20,,2013-06-26 03:11:00,
2013-06-25 20:22:00,61.0,58.0,29.79,ESE,112,0.0,1.0,91,0.01,,,0.20,,2013-06-26 03:22:00,
2013-06-25 20:33:00,61.0,58.0,29.81,SSW,203,0.0,1.0,91,0.00,,,0.20,,2013-06-26 03:33:00,
2013-06-25 20:43:00,61.0,58.0,29.81,SSW,203,0.0,1.0,91,0.00,,,0.20,,2013-06-26 03:43:00,
2013-06-25 20:52:00,61.0,58.0,29.81,SSW,203,0.0,1.0,91,0.00,,,0.20,,2013-06-26 03:52:00,
2013-06-25 21:01:00,60.0,58.0,29.83,West,281,3.0,4.0,92,0.05,,,0.25,,2013-06-26 04:01:00,
2013-06-25 21:11:00,60.0,58.0,29.83,West,281,3.0,4.0,92,0.05,,,0.25,,2013-06-26 04:11:00,
2013-06-25 21:22:00,60.0,58.0,29.83,West,281,3.0,4.0,92,0.05,,,0.25,,2013-06-26 04:22:00,
2013-06-25 21:33:00,60.0,58.0,29.83,West,281,3.0,4.0,92,0.05,,,0.25,,2013-06-26 04:33:00,
2013-06-25 21:43:00,58.0,56.0,29.84,WSW,256,1.0,7.0,93,0.30,,,0.50,,2013-06-26 04:43:00,
2013-06-25 21:53:00,58.0,56.0,29.84,WSW,256,1.0,7.0,93,0.30,,,0.50,,2013-06-26 04:53:00,
2013-06-25 22:02:00,57.0,55.0,29.85,WNW,285,0.0,1.0,93,0.26,,,0.51,,2013-06-26 05:02:00,
2013-06-25 22:11:00,57.0,55.0,29.85,WNW,285,0.0,1.0,93,0.26,,,0.51,,2013-06-26 05:11:00,
2013-06-25 22:21:00,57.0,55.0,29.85,WNW,285,0.0,1.0,93,0.26,,,0.51,,2013-06-26 05:21:00,
2013-06-25 22:33:00,57.0,55.0,29.85,SW,233,0.0,1.0,94,0.01,,,0.51,,2013-06-26 05:33:00,
2013-06-25 22:43:00,57.0,55.0,29.85,SW,233,0.0,1.0,94,0.01,,,0.51,,2013-06-26 05:43:00,
2013-06-25 22:52:00,57.0,55.0,29.85,SW,233,0.0,1.0,94,0.01,,,0.51,,2013-06-26 05:52:00,
2013-06-25 23:01:00,56.0,54.0,29.86,NNE,23,0.0,1.0,94,0.00,,,0.51,,2013-06-26 06:01:00,
2013-06-25 23:11:00,56.0,54.0,29.86,NNE,23,0.0,1.0,94,0.00,,,0.51,,2013-06-26 06:11:00,
2013-06-25 23:22:00,56.0,54.0,29.86,NNE,23,0.0,1.0,94,0.00,,,0.51,,2013-06-26 06:22:00,
2013-06-25 23:34:00,56.0,55.0,29.86,NNE,23,0.0,0.0,95,0.00,,,0.51,,2013-06-26 06:34:00,
2013-06-25 23:43:00,56.0,55.0,29.86,NNE,23,0.0,0.0,95,0.00,,,0.51,,2013-06-26 06:43:00,
2013-06-25 23:53:00,56.0,55.0,29.86,NNE,23,0.0,0.0,95,0.00,,,0.51,,2013-06-26 06:53:00,